This is the latest recevied weather packets stored in our database for station/object K1AWR. If no packets are shown the sender has not sent any weather packets the latest 1 day(s).
| Time | Temp. | Humidity | Pressure | Rain* | Wind** | Luminosity | Snow |
|---|---|---|---|---|---|---|---|
| 1778023828 | 20.56° C | 57% | 1008.5 hPa | 0 mm | 0.89 m/s, 246° | 8 W/m² | - |
| 1778023526 | 20.56° C | 56% | 1008.6 hPa | 0 mm | 0.45 m/s, 280° | 10 W/m² | - |
| 1778023223 | 20.56° C | 56% | 1008.8 hPa | 0 mm | 0.89 m/s, 203° | 12 W/m² | - |
| 1778022920 | 21.11° C | 55% | 1008.5 hPa | 0 mm | 0.45 m/s, 328° | 16 W/m² | - |
| 1778022619 | 21.11° C | 55% | 1008.4 hPa | 0 mm | 0.45 m/s, 229° | 19 W/m² | - |
| 1778022315 | 21.11° C | 55% | 1008.1 hPa | 0 mm | 1.34 m/s, 171° | 23 W/m² | - |
| 1778022012 | 21.67° C | 55% | 1008.2 hPa | 0 mm | 1.34 m/s, 166° | 28 W/m² | - |
| 1778021709 | 21.67° C | 53% | 1008 hPa | 0 mm | 0 m/s | 36 W/m² | - |
| 1778021405 | 21.67° C | 53% | 1008 hPa | 0 mm | 0.89 m/s, 182° | 39 W/m² | - |
| 1778021102 | 22.22° C | 53% | 1007.8 hPa | 0 mm | 1.34 m/s, 177° | 41 W/m² | - |
| 1778020799 | 22.22° C | 53% | 1007.8 hPa | 0 mm | 1.34 m/s, 138° | 45 W/m² | - |
| 1778020496 | 22.22° C | 52% | 1007.9 hPa | 0 mm | 1.79 m/s, 178° | 48 W/m² | - |
| 1778020192 | 22.22° C | 52% | 1007.9 hPa | 0 mm | 0.89 m/s, 210° | 53 W/m² | - |
| 1778019889 | 22.78° C | 51% | 1007.9 hPa | 0 mm | 1.34 m/s, 242° | 56 W/m² | - |
| 1778019584 | 22.78° C | 51% | 1007.9 hPa | 0 mm | 1.79 m/s, 213° | 48 W/m² | - |
| 1778019282 | 22.78° C | 51% | 1007.7 hPa | 0 mm | 0.45 m/s, 191° | 49 W/m² | - |
| 1778018979 | 23.33° C | 50% | 1007.7 hPa | 0 mm | 1.34 m/s, 220° | 52 W/m² | - |
| 1778018676 | 23.33° C | 50% | 1007.4 hPa | 0 mm | 0.89 m/s, 255° | 65 W/m² | - |
| 1778018373 | 23.33° C | 49% | 1007.6 hPa | 0 mm | 1.34 m/s, 202° | 77 W/m² | - |
| 1778018071 | 23.89° C | 50% | 1007.7 hPa | 0 mm | 1.79 m/s, 181° | 126 W/m² | - |
| 1778017769 | 23.33° C | 49% | 1007.7 hPa | 0 mm | 1.79 m/s, 222° | 81 W/m² | - |
| 1778017467 | 23.89° C | 48% | 1007.8 hPa | 0 mm | 2.68 m/s, 143° | 82 W/m² | - |
| 1778017164 | 23.89° C | 47% | 1007.9 hPa | 0 mm | 2.68 m/s, 171° | 89 W/m² | - |
| 1778016861 | 23.89° C | 48% | 1007.9 hPa | 0 mm | 0.89 m/s, 59° | 99 W/m² | - |
| 1778016557 | 24.44° C | 47% | 1007.8 hPa | 0 mm | 0.89 m/s, 207° | 147 W/m² | - |
* Rain latest hour (hover to see other rain measurements)
** Current wind speed in m/s (hover to see current wind gust speed)